| time (UTC) | temp C | wind direction | speed KPH | gust KPH | rain 1hr cm | rain 24hr cm | rain mn cm | humidity % | barometer mb |
| 20260901023518 | 10 | 0.0 | 0.0 | 0.00 | 0.03 | 0.00 | 89 | 1021.2 | |
| 20260901022520 | 10 | 0.0 | 0.0 | 0.00 | 0.03 | 0.00 | 89 | 1021.2 | |
| 20260901021529 | 10 | 0.0 | 0.0 | 0.00 | 0.03 | 0.00 | 89 | 1021.3 | |
| 20260901020543 | 10 | 0.0 | 0.0 | 0.00 | 0.03 | 0.00 | 88 | 1021.4 | |
| 20260901015519 | 11 | 0.0 | 0.0 | 0.00 | 0.03 | 0.00 | 88 | 1021.4 | |
| 20260901014550 | 11 | 0.0 | 0.0 | 0.00 | 0.03 | 0.00 | 88 | 1021.5 | |
| 20260901013517 | 11 | 0.0 | 0.0 | 0.00 | 0.03 | 0.00 | 88 | 1021.4 | |
| 20260901012521 | 11 | 0.0 | 0.0 | 0.00 | 0.03 | 0.00 | 88 | 1021.3 | |
| 20260901011521 | 11 | 0.0 | 0.0 | 0.00 | 0.03 | 0.00 | 86 | 1021.2 | |
| 20260901010520 | 11 | 0.0 | 0.0 | 0.00 | 0.03 | 0.00 | 86 | 1021.0 | |
| 20260901005528 | 11 | 0.0 | 0.0 | 0.00 | 0.03 | 0.00 | 86 | 1021.0 | |
| 20260901004544 | 11 | 0.0 | 0.0 | 0.00 | 0.03 | 0.00 | 86 | 1020.9 | |
| 20260901003520 | 11 | 0.0 | 0.0 | 0.00 | 0.03 | 0.00 | 86 | 1021.0 | |
| 20260901002518 | 11 | 0.0 | 0.0 | 0.00 | 0.03 | 0.00 | 85 | 1021.1 | |
| 20260901001524 | 12 | 0.0 | 0.0 | 0.00 | 0.03 | 0.00 | 85 | 1021.1 | |
| 20260901000522 | 12 | 0.0 | 0.0 | 0.00 | 0.03 | 0.00 | 85 | 1021.1 | |
| 20260831235518 | 12 | 0.0 | 1.6 | 0.00 | 0.03 | 0.00 | 84 | 1021.2 | |
| 20260831234520 | 12 | 0.0 | 1.6 | 0.00 | 0.03 | 0.00 | 83 | 1021.1 | |
| 20260831233517 | 12 | 0.0 | 0.0 | 0.00 | 0.03 | 0.00 | 83 | 1021.2 | |
| 20260831232522 | 12 | 0.0 | 3.2 | 0.00 | 0.03 | 0.00 | 82 | 1021.1 | |
| 20260831231517 | 12 | 248 | 1.6 | 4.8 | 0.00 | 0.03 | 0.00 | 82 | 1021.2 |
| 20260831230540 | 12 | 248 | 1.6 | 8.0 | 0.00 | 0.03 | 0.00 | 81 | 1021.2 |
| 20260831225517 | 13 | 225 | 3.2 | 9.7 | 0.00 | 0.03 | 0.03 | 81 | 1021.3 |
| 20260831224520 | 13 | 225 | 3.2 | 9.7 | 0.00 | 0.03 | 0.03 | 81 | 1021.3 |
| 20260831223520 | 13 | 225 | 4.8 | 9.7 | 0.00 | 0.03 | 0.03 | 80 | 1021.1 |
| 20260831222519 | 13 | 225 | 4.8 | 11.3 | 0.00 | 0.03 | 0.03 | 80 | 1021.0 |
| 20260831221521 | 13 | 248 | 6.4 | 11.3 | 0.00 | 0.05 | 0.03 | 79 | 1020.9 |
| 20260831220519 | 13 | 225 | 6.4 | 9.7 | 0.00 | 0.05 | 0.03 | 79 | 1021.0 |
| 20260831215519 | 13 | 248 | 4.8 | 11.3 | 0.00 | 0.05 | 0.03 | 78 | 1020.9 |
| 20260831214521 | 13 | 248 | 4.8 | 11.3 | 0.00 | 0.05 | 0.03 | 78 | 1020.9 |
| 20260831213604 | 13 | 225 | 4.8 | 11.3 | 0.00 | 0.05 | 0.03 | 78 | 1021.0 |
| 20260831212518 | 14 | 225 | 4.8 | 9.7 | 0.00 | 0.08 | 0.03 | 78 | 1020.9 |
| 20260831211518 | 14 | 225 | 6.4 | 11.3 | 0.00 | 0.30 | 0.03 | 77 | 1020.8 |
| 20260831210522 | 14 | 248 | 6.4 | 12.9 | 0.00 | 0.38 | 0.03 | 77 | 1020.8 |
| 20260831205519 | 14 | 248 | 6.4 | 14.5 | 0.00 | 0.38 | 0.03 | 76 | 1020.8 |
| 20260831204517 | 14 | 248 | 6.4 | 12.9 | 0.00 | 0.38 | 0.03 | 76 | 1020.7 |
| 20260831203518 | 15 | 248 | 6.4 | 12.9 | 0.00 | 0.38 | 0.03 | 75 | 1020.4 |
| 20260831202518 | 15 | 248 | 4.8 | 12.9 | 0.00 | 0.38 | 0.03 | 75 | 1020.4 |
| 20260831201552 | 15 | 248 | 6.4 | 11.3 | 0.00 | 0.41 | 0.03 | 76 | 1020.4 |
| 20260831200517 | 15 | 248 | 4.8 | 12.9 | 0.00 | 0.41 | 0.03 | 76 | 1020.4 |
| 20260831195519 | 15 | 248 | 4.8 | 9.7 | 0.00 | 0.41 | 0.03 | 75 | 1020.3 |
| 20260831194519 | 15 | 248 | 6.4 | 12.9 | 0.00 | 0.41 | 0.03 | 75 | 1020.4 |
| 20260831193517 | 15 | 248 | 4.8 | 11.3 | 0.00 | 0.41 | 0.03 | 74 | 1020.2 |
| 20260831192517 | 15 | 248 | 3.2 | 6.4 | 0.00 | 0.41 | 0.03 | 73 | 1020.0 |
| 20260831191517 | 16 | 248 | 4.8 | 9.7 | 0.00 | 0.41 | 0.03 | 72 | 1020.0 |
| 20260831190553 | 16 | 225 | 6.4 | 12.9 | 0.00 | 0.41 | 0.03 | 72 | 1019.8 |
| 20260831185518 | 16 | 248 | 6.4 | 14.5 | 0.00 | 0.41 | 0.03 | 71 | 1019.6 |
| 20260831184518 | 16 | 248 | 6.4 | 12.9 | 0.00 | 0.41 | 0.03 | 71 | 1019.6 |
| 20260831183517 | 16 | 248 | 4.8 | 9.7 | 0.00 | 0.41 | 0.03 | 70 | 1019.4 |
| 20260831182518 | 17 | 248 | 8.0 | 14.5 | 0.00 | 0.41 | 0.03 | 69 | 1019.4 |
| 20260831181518 | 17 | 248 | 8.0 | 19.3 | 0.00 | 0.41 | 0.03 | 67 | 1019.4 |
| 20260831180518 | 17 | 248 | 12.9 | 20.9 | 0.00 | 0.41 | 0.03 | 66 | 1019.6 |
| 20260831175519 | 17 | 248 | 11.3 | 17.7 | 0.00 | 0.41 | 0.03 | 66 | 1019.3 |
| 20260831174518 | 18 | 248 | 9.7 | 17.7 | 0.00 | 0.41 | 0.03 | 65 | 1019.2 |
| 20260831173518 | 18 | 248 | 9.7 | 20.9 | 0.00 | 0.48 | 0.03 | 64 | 1019.2 |
| 20260831172518 | 18 | 248 | 6.4 | 14.5 | 0.00 | 0.48 | 0.03 | 62 | 1018.9 |
| 20260831171519 | 18 | 248 | 4.8 | 16.1 | 0.00 | 0.48 | 0.03 | 61 | 1018.9 |
| 20260831170517 | 18 | 248 | 8.0 | 17.7 | 0.00 | 0.48 | 0.03 | 59 | 1018.9 |
| 20260831165517 | 19 | 270 | 11.3 | 25.7 | 0.00 | 0.48 | 0.03 | 58 | 1018.9 |
| 20260831164520 | 19 | 270 | 9.7 | 20.9 | 0.00 | 0.48 | 0.03 | 59 | 1018.7 |
| 20260831163520 | 19 | 270 | 12.9 | 29.0 | 0.00 | 0.51 | 0.03 | 59 | 1018.7 |
| 20260831162516 | 19 | 270 | 14.5 | 25.7 | 0.00 | 0.51 | 0.03 | 58 | 1018.8 |
| 20260831161540 | 19 | 270 | 11.3 | 22.5 | 0.00 | 0.51 | 0.03 | 62 | 1018.7 |
| 20260831160517 | 19 | 270 | 11.3 | 24.1 | 0.00 | 0.51 | 0.03 | 62 | 1018.7 |
| 20260831155518 | 19 | 270 | 14.5 | 25.7 | 0.00 | 0.51 | 0.03 | 61 | 1018.5 |
| 20260831154538 | 20 | 270 | 14.5 | 24.1 | 0.00 | 0.51 | 0.03 | 60 | 1018.4 |
| 20260831153518 | 20 | 270 | 16.1 | 27.4 | 0.00 | 0.51 | 0.03 | 58 | 1018.4 |
| 20260831152519 | 20 | 270 | 11.3 | 22.5 | 0.00 | 0.51 | 0.03 | 58 | 1018.3 |
| 20260831151521 | 21 | 248 | 14.5 | 29.0 | 0.00 | 0.51 | 0.03 | 57 | 1018.1 |
| 20260831150517 | 21 | 248 | 16.1 | 27.4 | 0.00 | 0.51 | 0.03 | 56 | 1018.0 |
| 20260831145520 | 21 | 248 | 11.3 | 20.9 | 0.00 | 0.51 | 0.03 | 54 | 1017.9 |
| 20260831144524 | 21 | 248 | 19.3 | 30.6 | 0.00 | 0.51 | 0.03 | 57 | 1017.9 |
| 20260831143521 | 21 | 248 | 14.5 | 24.1 | 0.00 | 0.51 | 0.03 | 59 | 1017.7 |
| 20260831142542 | 20 | 270 | 14.5 | 32.2 | 0.00 | 0.51 | 0.03 | 62 | 1017.8 |
| 20260831141523 | 20 | 248 | 12.9 | 24.1 | 0.00 | 0.51 | 0.03 | 67 | 1017.8 |
| 20260831140541 | 19 | 270 | 14.5 | 24.1 | 0.00 | 0.51 | 0.03 | 68 | 1017.7 |
| 20260831135521 | 19 | 248 | 12.9 | 20.9 | 0.00 | 0.51 | 0.03 | 72 | 1017.6 |
| 20260831134543 | 19 | 248 | 11.3 | 22.5 | 0.00 | 0.51 | 0.03 | 72 | 1017.6 |
| 20260831133523 | 20 | 270 | 12.9 | 22.5 | 0.00 | 0.51 | 0.03 | 64 | 1017.2 |
| 20260831132521 | 20 | 270 | 12.9 | 25.7 | 0.00 | 0.51 | 0.03 | 63 | 1017.1 |
| 20260831131542 | 20 | 270 | 11.3 | 25.7 | 0.00 | 0.51 | 0.03 | 63 | 1017.2 |
| 20260831130521 | 20 | 270 | 11.3 | 22.5 | 0.00 | 0.51 | 0.03 | 63 | 1016.9 |
| 20260831125520 | 20 | 293 | 8.0 | 17.7 | 0.00 | 0.51 | 0.03 | 62 | 1016.6 |
| 20260831124518 | 21 | 293 | 11.3 | 20.9 | 0.00 | 0.51 | 0.03 | 62 | 1016.9 |
| 20260831123522 | 21 | 293 | 9.7 | 24.1 | 0.00 | 0.51 | 0.03 | 62 | 1016.5 |
| 20260831122520 | 21 | 270 | 12.9 | 25.7 | 0.00 | 0.51 | 0.03 | 61 | 1016.6 |
| 20260831121521 | 22 | 270 | 11.3 | 30.6 | 0.00 | 0.51 | 0.03 | 61 | 1016.3 |
| 20260831120519 | 21 | 293 | 12.9 | 24.1 | 0.00 | 0.51 | 0.03 | 62 | 1017.0 |
| 20260831115518 | 21 | 293 | 12.9 | 27.4 | 0.00 | 0.51 | 0.03 | 64 | 1016.2 |
| 20260831114521 | 22 | 293 | 14.5 | 29.0 | 0.00 | 0.51 | 0.03 | 63 | 1016.0 |
| 20260831113519 | 21 | 248 | 16.1 | 25.7 | 0.00 | 0.51 | 0.03 | 63 | 1015.8 |
| 20260831112522 | 20 | 270 | 8.0 | 17.7 | 0.00 | 0.51 | 0.03 | 68 | 1015.6 |
| 20260831111541 | 20 | 270 | 14.5 | 30.6 | 0.00 | 0.51 | 0.03 | 68 | 1015.5 |
| 20260831110525 | 20 | 270 | 16.1 | 35.4 | 0.00 | 0.51 | 0.03 | 67 | 1015.6 |
| 20260831105518 | 20 | 293 | 11.3 | 25.7 | 0.00 | 0.51 | 0.03 | 71 | 1015.3 |
| 20260831104543 | 20 | 270 | 17.7 | 27.4 | 0.00 | 0.51 | 0.03 | 70 | 1015.1 |
| 20260831103523 | 18 | 270 | 9.7 | 20.9 | 0.00 | 0.51 | 0.03 | 76 | 1015.0 |
| 20260831102521 | 19 | 270 | 9.7 | 22.5 | 0.00 | 0.51 | 0.03 | 75 | 1014.9 |
| 20260831101519 | 19 | 270 | 8.0 | 16.1 | 0.00 | 0.51 | 0.03 | 73 | 1014.8 |
| 20260831100540 | 19 | 270 | 12.9 | 25.7 | 0.00 | 0.51 | 0.03 | 73 | 1014.7 |
| 20260831095519 | 19 | 293 | 12.9 | 27.4 | 0.00 | 0.51 | 0.03 | 72 | 1014.8 |
| 20260831094521 | 19 | 270 | 12.9 | 30.6 | 0.00 | 0.51 | 0.03 | 70 | 1014.5 |
| 20260831093601 | 20 | 293 | 9.7 | 22.5 | 0.00 | 0.51 | 0.03 | 70 | 1014.1 |
| 20260831092559 | 20 | 270 | 16.1 | 35.4 | 0.00 | 0.51 | 0.03 | 70 | 1014.2 |
| 20260831091522 | 19 | 270 | 12.9 | 25.7 | 0.00 | 0.51 | 0.03 | 72 | 1013.9 |
| 20260831090518 | 19 | 293 | 14.5 | 25.7 | 0.00 | 0.51 | 0.03 | 73 | 1013.6 |
| 20260831085522 | 19 | 270 | 12.9 | 25.7 | 0.00 | 0.51 | 0.03 | 74 | 1013.7 |
| 20260831084522 | 19 | 270 | 14.5 | 24.1 | 0.00 | 0.51 | 0.03 | 73 | 1013.8 |
| 20260831083520 | 19 | 270 | 12.9 | 29.0 | 0.00 | 0.51 | 0.03 | 76 | 1013.3 |
| 20260831082521 | 18 | 248 | 11.3 | 22.5 | 0.03 | 0.51 | 0.03 | 76 | 1012.9 |
| 20260831081520 | 18 | 270 | 12.9 | 22.5 | 0.03 | 0.51 | 0.03 | 78 | 1012.9 |
| 20260831080520 | 18 | 270 | 12.9 | 22.5 | 0.03 | 0.51 | 0.03 | 80 | 1012.7 |
| 20260831075524 | 18 | 248 | 11.3 | 19.3 | 0.03 | 0.51 | 0.03 | 80 | 1012.5 |
| 20260831074518 | 18 | 248 | 11.3 | 19.3 | 0.03 | 0.51 | 0.03 | 81 | 1012.2 |
| 20260831073519 | 17 | 248 | 11.3 | 24.1 | 0.03 | 0.51 | 0.03 | 82 | 1012.1 |
| 20260831072518 | 17 | 248 | 11.3 | 24.1 | 0.00 | 0.48 | 0.00 | 85 | 1011.6 |
| 20260831071524 | 16 | 248 | 9.7 | 20.9 | 0.00 | 0.48 | 0.00 | 87 | 1011.7 |
| 20260831070518 | 16 | 248 | 11.3 | 19.3 | 0.00 | 0.48 | 0.00 | 88 | 1011.4 |
| 20260831065601 | 15 | 248 | 8.0 | 17.7 | 0.00 | 0.48 | 0.00 | 90 | 1011.3 |
| 20260831064519 | 15 | 248 | 9.7 | 17.7 | 0.00 | 0.48 | 0.00 | 90 | 1011.1 |
| 20260831063525 | 15 | 248 | 8.0 | 17.7 | 0.00 | 0.48 | 0.00 | 90 | 1011.1 |
| 20260831062520 | 14 | 248 | 9.7 | 19.3 | 0.00 | 0.48 | 0.00 | 90 | 1010.7 |
| 20260831061518 | 14 | 248 | 12.9 | 20.9 | 0.00 | 0.48 | 0.00 | 90 | 1010.4 |
| 20260831060517 | 14 | 248 | 11.3 | 22.5 | 0.00 | 0.48 | 0.00 | 90 | 1010.2 |
| 20260831055519 | 14 | 248 | 11.3 | 19.3 | 0.00 | 0.48 | 0.00 | 90 | 1009.9 |
| 20260831054522 | 14 | 248 | 11.3 | 20.9 | 0.00 | 0.48 | 0.00 | 90 | 1009.7 |
| 20260831053523 | 13 | 248 | 12.9 | 24.1 | 0.00 | 0.48 | 0.00 | 90 | 1009.6 |
| 20260831052520 | 13 | 225 | 14.5 | 27.4 | 0.00 | 0.48 | 0.00 | 90 | 1009.3 |
| 20260831051521 | 13 | 225 | 11.3 | 24.1 | 0.00 | 0.48 | 0.00 | 90 | 1009.2 |
| 20260831050520 | 13 | 225 | 12.9 | 22.5 | 0.00 | 0.48 | 0.00 | 90 | 1009.0 |
| 20260831045520 | 13 | 248 | 12.9 | 27.4 | 0.00 | 0.48 | 0.00 | 90 | 1008.9 |
| 20260831044518 | 13 | 225 | 11.3 | 20.9 | 0.00 | 0.48 | 0.00 | 90 | 1008.7 |
| 20260831043522 | 13 | 225 | 9.7 | 19.3 | 0.00 | 0.48 | 0.00 | 90 | 1008.7 |
| 20260831042520 | 13 | 248 | 12.9 | 22.5 | 0.00 | 0.48 | 0.00 | 90 | 1008.7 |
| 20260831041542 | 13 | 225 | 9.7 | 22.5 | 0.00 | 0.48 | 0.00 | 90 | 1008.7 |
| 20260831040518 | 13 | 225 | 11.3 | 20.9 | 0.00 | 0.48 | 0.00 | 90 | 1008.6 |
| 20260831035518 | 13 | 225 | 11.3 | 24.1 | 0.00 | 0.48 | 0.00 | 90 | 1008.4 |
| 20260831034521 | 13 | 225 | 11.3 | 19.3 | 0.00 | 0.48 | 0.00 | 90 | 1008.4 |
| 20260831033521 | 13 | 225 | 11.3 | 19.3 | 0.00 | 0.48 | 0.00 | 90 | 1008.4 |
| 20260831032544 | 13 | 225 | 9.7 | 19.3 | 0.00 | 0.48 | 0.00 | 90 | 1008.2 |
| 20260831031517 | 13 | 225 | 12.9 | 20.9 | 0.00 | 0.48 | 0.00 | 90 | 1008.0 |
| 20260831030518 | 13 | 225 | 11.3 | 22.5 | 0.00 | 0.48 | 0.00 | 90 | 1008.0 |
| 20260831025517 | 13 | 248 | 11.3 | 22.5 | 0.00 | 0.48 | 0.00 | 91 | 1008.1 |
| 20260831024519 | 13 | 225 | 9.7 | 19.3 | 0.00 | 0.48 | 0.00 | 91 | 1007.9 |